Change the Weather History Date:

Friday, May 3, 2013

  Actual Average Record
Temperature  
Mean Temperature 64 °F 65 °F  
Max Temperature 70 °F 77 °F 91 °F (1899)
Min Temperature 58 °F 53 °F 38 °F (1971)
Degree Days  
Heating Degree Days 1 2  
Month to date heating degree days 1 8  
Since 1 July heating degree days 3031 3208  
Cooling Degree Days 0 3  
Month to date cooling degree days 3 7  
Year to date cooling degree days 43 53  
Growing Degree Days 14 (Base 50)    
Moisture  
Dew Point 54 °F    
Average Humidity 75    
Maximum Humidity 93    
Minimum Humidity 57    
Precipitation  
Precipitation T in 0.14 in 1.87 in (1893)
Month to date precipitation T 0.43  
Year to date precipitation 27.48 19.15  
Snow  
Snow 0.00 in 0.00 in - ()
Month to date snowfall 0.0 0.0  
Since 1 July snowfall 0.3 3.9  
Snow Depth 0.00 in    
Sea Level Pressure  
Sea Level Pressure 30.02 in    
Wind  
Wind Speed 7 mph (SE)    
Max Wind Speed 22 mph    
Max Gust Speed 30 mph    
Visibility 10 miles    
Events Rain    
T = Trace of Precipitation, MM = Missing Value Source: NWS Daily Summary

Daily Weather History Graph

Daily Weather History Graph

Search for Another Location

Airport or City:

Trip Planner

Search our weather history database for the weather conditions in past years. The results will help you decide how hot, cold, wet, or windy it might be!

Date:

Astronomy

May. 03, 2013 Rise Set
Actual Time 6:47 AM EDT 8:28 PM EDT
Civil Twilight 6:20 AM EDT 8:55 PM EDT
Nautical Twilight 5:47 AM EDT 9:28 PM EDT
Astronomical Twilight 5:13 AM EDT 10:03 PM EDT
Moon 2:57 AM EDT (5/3) 2:35 PM EDT (5/3)
Length of Visible Light 14h 35m
Length of Day
13h 40m
Last Quarter, 37% of the Moon is Illuminated
May 3
Last Quarter
May 9
New
May 18
First Quarter
May 25
Full
May 31
Last Quarter

Hourly Weather History & Observations

Time (EDT) Temp. Dew Point Humidity Pressure Visibility Wind Dir Wind Speed Gust Speed Precip Events Conditions
12:53 AM 63.0 °F 55.0 °F 75% 30.11 in 10.0 mi Calm Calm - N/A   Partly Cloudy
1:53 AM 60.1 °F 55.9 °F 86% 30.10 in 10.0 mi Calm Calm - N/A   Partly Cloudy
2:53 AM 60.1 °F 55.9 °F 86% 30.07 in 10.0 mi NNW 4.6 mph - N/A   Scattered Clouds
3:53 AM 60.8 °F 55.4 °F 82% 30.07 in 10.0 mi Calm Calm - N/A   Clear
4:53 AM 57.9 °F 55.0 °F 90% 30.05 in 10.0 mi Calm Calm - N/A   Partly Cloudy
5:53 AM 59.0 °F 55.0 °F 87% 30.05 in 10.0 mi Calm Calm - N/A   Mostly Cloudy
6:53 AM 60.1 °F 55.9 °F 86% 30.06 in 10.0 mi Calm Calm - N/A   Mostly Cloudy
7:53 AM 62.1 °F 55.0 °F 78% 30.06 in 10.0 mi Calm Calm - N/A   Mostly Cloudy
8:53 AM 63.0 °F 55.0 °F 75% 30.06 in 10.0 mi Calm Calm - N/A   Mostly Cloudy
9:53 AM 64.9 °F 54.0 °F 68% 30.06 in 10.0 mi SE 8.1 mph - N/A   Mostly Cloudy
10:53 AM 69.1 °F 53.1 °F 57% 30.04 in 10.0 mi SSE 9.2 mph 19.6 mph N/A   Mostly Cloudy
11:53 AM 69.1 °F 53.1 °F 57% 30.04 in 10.0 mi SE 10.4 mph - N/A   Mostly Cloudy
12:53 PM 68.0 °F 53.1 °F 59% 30.03 in 10.0 mi SSE 9.2 mph 16.1 mph N/A   Mostly Cloudy
1:53 PM 69.1 °F 53.1 °F 57% 30.01 in 10.0 mi South 12.7 mph 17.3 mph N/A   Mostly Cloudy
2:53 PM 66.0 °F 53.1 °F 63% 30.02 in 10.0 mi SE 13.8 mph 24.2 mph 0.00 in Rain Light Rain
3:53 PM 64.0 °F 55.9 °F 75% 30.01 in 10.0 mi SE 8.1 mph - 0.00 in   Overcast
4:53 PM 64.9 °F 55.9 °F 73% 29.99 in 10.0 mi ESE 5.8 mph - N/A   Overcast
5:53 PM 66.9 °F 53.1 °F 61% 29.97 in 10.0 mi ESE 20.7 mph 27.6 mph N/A   Overcast
6:53 PM 66.0 °F 53.1 °F 63% 29.96 in 10.0 mi SE 10.4 mph - N/A   Overcast
7:53 PM 64.9 °F 53.1 °F 65% 29.95 in 10.0 mi SE 8.1 mph 17.3 mph N/A   Overcast
8:53 PM 64.9 °F 53.1 °F 65% 29.95 in 10.0 mi SE 9.2 mph - N/A   Mostly Cloudy
9:53 PM 64.9 °F 53.1 °F 65% 29.96 in 10.0 mi SE 6.9 mph - N/A   Overcast
10:53 PM 64.0 °F 53.1 °F 67% 29.96 in 10.0 mi SE 8.1 mph - N/A   Overcast
11:53 PM 64.9 °F 51.1 °F 61% 29.95 in 10.0 mi SE 9.2 mph 28.8 mph N/A   Overcast